owner,sensor,date,latitude,longitude,air_pressure(mBar),qcFlag 
TABS,ioos:station:wmo:42047:1,2015-10-01T00:00:00Z,27.8966,-93.5973,1011.51,11111222 
TABS,ioos:station:wmo:42047:1,2015-10-01T00:30:00Z,27.8966,-93.5973,1011.84,11111222 
TABS,ioos:station:wmo:42047:1,2015-10-01T01:00:00Z,27.8966,-93.5973,1012.11,11111222 
TABS,ioos:station:wmo:42047:1,2015-10-01T01:30:00Z,27.8966,-93.5973,1012.36,11111222 
TABS,ioos:station:wmo:42047:1,2015-10-01T02:00:00Z,27.8966,-93.5973,1012.56,11111222 
TABS,ioos:station:wmo:42047:1,2015-10-01T02:30:00Z,27.8966,-93.5973,1012.84,11111222 
TABS,ioos:station:wmo:42047:1,2015-10-01T03:00:00Z,27.8966,-93.5973,1012.94,11111222 
TABS,ioos:station:wmo:42047:1,2015-10-01T03:30:00Z,27.8966,-93.5973,1012.87,11111222 
TABS,ioos:station:wmo:42047:1,2015-10-01T04:00:00Z,27.8966,-93.5973,1012.69,11111222 
TABS,ioos:station:wmo:42047:1,2015-10-01T04:30:00Z,27.8966,-93.5973,1012.73,11111222 
TABS,ioos:station:wmo:42047:1,2015-10-01T05:00:00Z,27.8966,-93.5973,1012.69,11111222 
TABS,ioos:station:wmo:42047:1,2015-10-01T05:30:00Z,27.8966,-93.5973,1012.48,11111222 
TABS,ioos:station:wmo:42047:1,2015-10-01T06:00:00Z,27.8966,-93.5973,1012.45,11111222 
TABS,ioos:station:wmo:42047:1,2015-10-01T06:30:00Z,27.8966,-93.5973,1012.54,11111222 
TABS,ioos:station:wmo:42047:1,2015-10-01T07:00:00Z,27.8966,-93.5973,1012.44,11111222 
TABS,ioos:station:wmo:42047:1,2015-10-01T07:30:00Z,27.8966,-93.5973,1012.41,11111222 
TABS,ioos:station:wmo:42047:1,2015-10-01T08:00:00Z,27.8966,-93.5973,1012.21,11111222 
TABS,ioos:station:wmo:42047:1,2015-10-01T08:30:00Z,27.8966,-93.5973,1012.32,11111222 
TABS,ioos:station:wmo:42047:1,2015-10-01T09:00:00Z,27.8966,-93.5973,1012.02,11111222 
TABS,ioos:station:wmo:42047:1,2015-10-01T09:30:00Z,27.8966,-93.5973,1012.35,11111222 
TABS,ioos:station:wmo:42047:1,2015-10-01T10:00:00Z,27.8966,-93.5973,1012.55,11111222 
TABS,ioos:station:wmo:42047:1,2015-10-01T10:30:00Z,27.8966,-93.5973,1012.57,11111222 
TABS,ioos:station:wmo:42047:1,2015-10-01T11:00:00Z,27.8966,-93.5973,1012.9,11111222 
TABS,ioos:station:wmo:42047:1,2015-10-01T11:30:00Z,27.8966,-93.5973,1013.23,11111222 
TABS,ioos:station:wmo:42047:1,2015-10-01T12:00:00Z,27.8966,-93.5973,1013.34,11111222 
TABS,ioos:station:wmo:42047:1,2015-10-01T12:30:00Z,27.8966,-93.5973,1013.43,11111222 
TABS,ioos:station:wmo:42047:1,2015-10-01T13:00:00Z,27.8966,-93.5973,1013.74,11111222 
TABS,ioos:station:wmo:42047:1,2015-10-01T13:30:00Z,27.8966,-93.5973,1014.13,11111222 
TABS,ioos:station:wmo:42047:1,2015-10-01T14:00:00Z,27.8966,-93.5973,1014.29,11111222 
TABS,ioos:station:wmo:42047:1,2015-10-01T14:30:00Z,27.8966,-93.5973,1014.59,11111222 
TABS,ioos:station:wmo:42047:1,2015-10-01T15:00:00Z,27.8966,-93.5973,1014.78,11111222 
TABS,ioos:station:wmo:42047:1,2015-10-01T15:30:00Z,27.8966,-93.5973,1014.79,11111222 
TABS,ioos:station:wmo:42047:1,2015-10-01T16:00:00Z,27.8966,-93.5973,1014.79,11111222 
TABS,ioos:station:wmo:42047:1,2015-10-01T16:30:00Z,27.8966,-93.5973,1014.7,11111222 
TABS,ioos:station:wmo:42047:1,2015-10-01T17:00:00Z,27.8966,-93.5973,1014.4,11111222 
TABS,ioos:station:wmo:42047:1,2015-10-01T17:30:00Z,27.8966,-93.5973,1014.35,11111222 
TABS,ioos:station:wmo:42047:1,2015-10-01T18:00:00Z,27.8966,-93.5973,1014.07,11111222 
TABS,ioos:station:wmo:42047:1,2015-10-01T18:30:00Z,27.8966,-93.5973,1013.79,11111222 
TABS,ioos:station:wmo:42047:1,2015-10-01T19:00:00Z,27.8966,-93.5973,1013.56,11111222 
TABS,ioos:station:wmo:42047:1,2015-10-01T19:30:00Z,27.8966,-93.5973,1013.13,11111222 
TABS,ioos:station:wmo:42047:1,2015-10-01T20:00:00Z,27.8966,-93.5973,1012.78,11111222 
TABS,ioos:station:wmo:42047:1,2015-10-01T20:30:00Z,27.8966,-93.5973,1012.63,11111222 
TABS,ioos:station:wmo:42047:1,2015-10-01T21:00:00Z,27.8966,-93.5973,1012.74,11111222 
TABS,ioos:station:wmo:42047:1,2015-10-01T21:30:00Z,27.8966,-93.5973,1012.27,11111222 
TABS,ioos:station:wmo:42047:1,2015-10-01T22:00:00Z,27.8966,-93.5973,1012.23,11111222 
TABS,ioos:station:wmo:42047:1,2015-10-01T22:30:00Z,27.8966,-93.5973,1012.14,11111222 
TABS,ioos:station:wmo:42047:1,2015-10-01T23:00:00Z,27.8966,-93.5973,1012.33,11111222 
TABS,ioos:station:wmo:42047:1,2015-10-01T23:30:00Z,27.8966,-93.5973,1012.47,11111222 
TABS,ioos:station:wmo:42047:1,2015-10-02T00:00:00Z,27.8966,-93.5973,1012.65,11111222 
TABS,ioos:station:wmo:42047:1,2015-10-02T00:30:00Z,27.8966,-93.5973,1012.78,11111222 
TABS,ioos:station:wmo:42047:1,2015-10-02T01:00:00Z,27.8966,-93.5973,1013.23,11111222 
TABS,ioos:station:wmo:42047:1,2015-10-02T01:30:00Z,27.8966,-93.5973,1013.09,11111222 
TABS,ioos:station:wmo:42047:1,2015-10-02T02:00:00Z,27.8966,-93.5973,1013.22,11111222 
TABS,ioos:station:wmo:42047:1,2015-10-02T02:30:00Z,27.8966,-93.5973,1013.39,11111222 
TABS,ioos:station:wmo:42047:1,2015-10-02T03:00:00Z,27.8966,-93.5973,1013.47,11111222 
TABS,ioos:station:wmo:42047:1,2015-10-02T03:30:00Z,27.8966,-93.5973,1013.34,11111222 
TABS,ioos:station:wmo:42047:1,2015-10-02T04:00:00Z,27.8966,-93.5973,1013.43,11111222 
TABS,ioos:station:wmo:42047:1,2015-10-02T04:30:00Z,27.8966,-93.5973,1013.24,11111222 
TABS,ioos:station:wmo:42047:1,2015-10-02T05:00:00Z,27.8966,-93.5973,1012.94,11111222 
TABS,ioos:station:wmo:42047:1,2015-10-02T05:30:00Z,27.8966,-93.5973,1013.01,11111222 
TABS,ioos:station:wmo:42047:1,2015-10-02T06:00:00Z,27.8966,-93.5973,1012.98,11111222 
TABS,ioos:station:wmo:42047:1,2015-10-02T06:30:00Z,27.8966,-93.5973,1012.78,11111222 
TABS,ioos:station:wmo:42047:1,2015-10-02T07:00:00Z,27.8966,-93.5973,1012.51,11111222 
TABS,ioos:station:wmo:42047:1,2015-10-02T07:30:00Z,27.8966,-93.5973,1012.42,11111222 
TABS,ioos:station:wmo:42047:1,2015-10-02T08:00:00Z,27.8966,-93.5973,1012.14,11111222 
TABS,ioos:station:wmo:42047:1,2015-10-02T08:30:00Z,27.8966,-93.5973,1012.14,11111222 
TABS,ioos:station:wmo:42047:1,2015-10-02T09:00:00Z,27.8966,-93.5973,1011.98,11111222 
TABS,ioos:station:wmo:42047:1,2015-10-02T09:30:00Z,27.8966,-93.5973,1011.96,11111222 
TABS,ioos:station:wmo:42047:1,2015-10-02T10:00:00Z,27.8966,-93.5973,1012.02,11111222 
TABS,ioos:station:wmo:42047:1,2015-10-02T10:30:00Z,27.8966,-93.5973,1012.24,11111222 
TABS,ioos:station:wmo:42047:1,2015-10-02T11:00:00Z,27.8966,-93.5973,1012.28,11111222 
TABS,ioos:station:wmo:42047:1,2015-10-02T11:30:00Z,27.8966,-93.5973,1012.4,11111222 
TABS,ioos:station:wmo:42047:1,2015-10-02T12:00:00Z,27.8966,-93.5973,1012.55,11111222 
TABS,ioos:station:wmo:42047:1,2015-10-02T12:30:00Z,27.8966,-93.5973,1012.73,11111222 
TABS,ioos:station:wmo:42047:1,2015-10-02T13:00:00Z,27.8966,-93.5973,1012.75,11111222 
TABS,ioos:station:wmo:42047:1,2015-10-02T13:30:00Z,27.8966,-93.5973,1013.13,11111222 
TABS,ioos:station:wmo:42047:1,2015-10-02T14:00:00Z,27.8966,-93.5973,1013.45,11111222 
TABS,ioos:station:wmo:42047:1,2015-10-02T14:30:00Z,27.8966,-93.5973,1013.4,11111222 
TABS,ioos:station:wmo:42047:1,2015-10-02T15:00:00Z,27.8966,-93.5973,1013.49,11111222 
TABS,ioos:station:wmo:42047:1,2015-10-02T15:30:00Z,27.8966,-93.5973,1013.87,11111222 
TABS,ioos:station:wmo:42047:1,2015-10-02T16:00:00Z,27.8966,-93.5973,1013.53,11111222 
TABS,ioos:station:wmo:42047:1,2015-10-02T16:30:00Z,27.8966,-93.5973,1013.63,11111222 
TABS,ioos:station:wmo:42047:1,2015-10-02T17:00:00Z,27.8966,-93.5973,1013.39,11111222 
TABS,ioos:station:wmo:42047:1,2015-10-02T17:30:00Z,27.8966,-93.5973,1013.11,11111222 
TABS,ioos:station:wmo:42047:1,2015-10-02T18:00:00Z,27.8966,-93.5973,1012.73,11111222 
TABS,ioos:station:wmo:42047:1,2015-10-02T18:30:00Z,27.8966,-93.5973,1011.81,11111222 
TABS,ioos:station:wmo:42047:1,2015-10-02T19:00:00Z,27.8966,-93.5973,1011.64,11111222 
TABS,ioos:station:wmo:42047:1,2015-10-02T19:30:00Z,27.8966,-93.5973,1011.33,11111222 
TABS,ioos:station:wmo:42047:1,2015-10-02T20:00:00Z,27.8966,-93.5973,1011.0,11111222 
TABS,ioos:station:wmo:42047:1,2015-10-02T20:30:00Z,27.8966,-93.5973,1010.55,11111222 
TABS,ioos:station:wmo:42047:1,2015-10-02T21:00:00Z,27.8966,-93.5973,1010.67,11111222 
TABS,ioos:station:wmo:42047:1,2015-10-02T21:30:00Z,27.8966,-93.5973,1010.48,11111222 
TABS,ioos:station:wmo:42047:1,2015-10-02T22:00:00Z,27.8966,-93.5973,1010.32,11111222 
TABS,ioos:station:wmo:42047:1,2015-10-02T22:30:00Z,27.8966,-93.5973,1010.42,11111222 
TABS,ioos:station:wmo:42047:1,2015-10-02T23:00:00Z,27.8966,-93.5973,1010.38,11111222 
TABS,ioos:station:wmo:42047:1,2015-10-02T23:30:00Z,27.8966,-93.5973,1010.15,11111222 
TABS,ioos:station:wmo:42047:1,2015-10-03T00:00:00Z,27.8966,-93.5973,1010.21,11111222 
TABS,ioos:station:wmo:42047:1,2015-10-03T00:30:00Z,27.8966,-93.5973,1010.39,11111222 
TABS,ioos:station:wmo:42047:1,2015-10-03T01:00:00Z,27.8966,-93.5973,1010.44,11111222 
TABS,ioos:station:wmo:42047:1,2015-10-03T01:30:00Z,27.8966,-93.5973,1010.36,11111222 
TABS,ioos:station:wmo:42047:1,2015-10-03T02:00:00Z,27.8966,-93.5973,1010.51,11111222 
TABS,ioos:station:wmo:42047:1,2015-10-03T02:30:00Z,27.8966,-93.5973,1010.73,11111222 
TABS,ioos:station:wmo:42047:1,2015-10-03T03:00:00Z,27.8966,-93.5973,1010.82,11111222 
TABS,ioos:station:wmo:42047:1,2015-10-03T03:30:00Z,27.8966,-93.5973,1010.76,11111222 
TABS,ioos:station:wmo:42047:1,2015-10-03T04:00:00Z,27.8966,-93.5973,1010.65,11111222 
TABS,ioos:station:wmo:42047:1,2015-10-03T04:30:00Z,27.8966,-93.5973,1010.35,11111222 
TABS,ioos:station:wmo:42047:1,2015-10-03T05:00:00Z,27.8966,-93.5973,1010.29,11111222 
TABS,ioos:station:wmo:42047:1,2015-10-03T05:30:00Z,27.8966,-93.5973,1010.28,11111222 
TABS,ioos:station:wmo:42047:1,2015-10-03T06:00:00Z,27.8966,-93.5973,1010.1,11111222 
TABS,ioos:station:wmo:42047:1,2015-10-03T06:30:00Z,27.8966,-93.5973,1009.89,11111222 
TABS,ioos:station:wmo:42047:1,2015-10-03T07:00:00Z,27.8966,-93.5973,1009.73,11111222 
TABS,ioos:station:wmo:42047:1,2015-10-03T07:30:00Z,27.8966,-93.5973,1009.49,11111222 
TABS,ioos:station:wmo:42047:1,2015-10-03T08:00:00Z,27.8966,-93.5973,1009.21,11111222 
TABS,ioos:station:wmo:42047:1,2015-10-03T08:30:00Z,27.8966,-93.5973,1009.08,11111222 
TABS,ioos:station:wmo:42047:1,2015-10-03T09:00:00Z,27.8966,-93.5973,1009.28,11111222 
TABS,ioos:station:wmo:42047:1,2015-10-03T09:30:00Z,27.8966,-93.5973,1009.48,11111222 
TABS,ioos:station:wmo:42047:1,2015-10-03T10:00:00Z,27.8966,-93.5973,1009.7,11111222 
TABS,ioos:station:wmo:42047:1,2015-10-03T10:30:00Z,27.8966,-93.5973,1009.89,11111222 
TABS,ioos:station:wmo:42047:1,2015-10-03T11:00:00Z,27.8966,-93.5973,1009.95,11111222 
TABS,ioos:station:wmo:42047:1,2015-10-03T11:30:00Z,27.8966,-93.5973,1009.92,11111222 
TABS,ioos:station:wmo:42047:1,2015-10-03T12:00:00Z,27.8966,-93.5973,1010.23,11111222 
TABS,ioos:station:wmo:42047:1,2015-10-03T12:30:00Z,27.8966,-93.5973,1010.3,11111222 
TABS,ioos:station:wmo:42047:1,2015-10-03T13:00:00Z,27.8966,-93.5973,1010.5,11111222 
TABS,ioos:station:wmo:42047:1,2015-10-03T13:30:00Z,27.8966,-93.5973,1010.64,11111222 
TABS,ioos:station:wmo:42047:1,2015-10-03T14:00:00Z,27.8966,-93.5973,1011.09,11111222 
TABS,ioos:station:wmo:42047:1,2015-10-03T14:30:00Z,27.8966,-93.5973,1011.21,11111222 
TABS,ioos:station:wmo:42047:1,2015-10-03T15:00:00Z,27.8966,-93.5973,1011.46,11111222 
TABS,ioos:station:wmo:42047:1,2015-10-03T15:30:00Z,27.8966,-93.5973,1011.54,11111222 
TABS,ioos:station:wmo:42047:1,2015-10-03T16:00:00Z,27.8966,-93.5973,1011.48,11111222 
TABS,ioos:station:wmo:42047:1,2015-10-03T16:30:00Z,27.8966,-93.5973,1011.51,11111222 
TABS,ioos:station:wmo:42047:1,2015-10-03T17:00:00Z,27.8966,-93.5973,1011.14,11111222 
TABS,ioos:station:wmo:42047:1,2015-10-03T17:30:00Z,27.8966,-93.5973,1011.07,11111222 
TABS,ioos:station:wmo:42047:1,2015-10-03T18:00:00Z,27.8966,-93.5973,1010.8,11111222 
TABS,ioos:station:wmo:42047:1,2015-10-03T18:30:00Z,27.8966,-93.5973,1010.34,11111222 
TABS,ioos:station:wmo:42047:1,2015-10-03T19:00:00Z,27.8966,-93.5973,1010.0,11111222 
TABS,ioos:station:wmo:42047:1,2015-10-03T19:30:00Z,27.8966,-93.5973,1009.69,11111222 
TABS,ioos:station:wmo:42047:1,2015-10-03T20:00:00Z,27.8966,-93.5973,1009.25,11111222 
TABS,ioos:station:wmo:42047:1,2015-10-03T20:30:00Z,27.8966,-93.5973,1009.19,11111222 
TABS,ioos:station:wmo:42047:1,2015-10-03T21:00:00Z,27.8966,-93.5973,1009.08,11111222 
TABS,ioos:station:wmo:42047:1,2015-10-03T21:30:00Z,27.8966,-93.5973,1008.94,11111222 
TABS,ioos:station:wmo:42047:1,2015-10-03T22:00:00Z,27.8966,-93.5973,1009.11,11111222 
TABS,ioos:station:wmo:42047:1,2015-10-03T22:30:00Z,27.8966,-93.5973,1008.92,11111222 
TABS,ioos:station:wmo:42047:1,2015-10-03T23:00:00Z,27.8966,-93.5973,1009.32,11111222 
TABS,ioos:station:wmo:42047:1,2015-10-03T23:30:00Z,27.8966,-93.5973,1009.44,11111222 
TABS,ioos:station:wmo:42047:1,2015-10-04T00:00:00Z,27.8966,-93.5973,1009.86,11111222 
TABS,ioos:station:wmo:42047:1,2015-10-04T00:30:00Z,27.8966,-93.5973,1009.92,11111222 
TABS,ioos:station:wmo:42047:1,2015-10-04T01:00:00Z,27.8966,-93.5973,1010.35,11111222 
TABS,ioos:station:wmo:42047:1,2015-10-04T01:30:00Z,27.8966,-93.5973,1010.61,11111222 
TABS,ioos:station:wmo:42047:1,2015-10-04T02:00:00Z,27.8966,-93.5973,1010.69,11111222 
TABS,ioos:station:wmo:42047:1,2015-10-04T02:30:00Z,27.8966,-93.5973,1010.97,11111222 
TABS,ioos:station:wmo:42047:1,2015-10-04T03:00:00Z,27.8966,-93.5973,1011.09,11111222 
TABS,ioos:station:wmo:42047:1,2015-10-04T03:30:00Z,27.8966,-93.5973,1011.21,11111222 
TABS,ioos:station:wmo:42047:1,2015-10-04T04:00:00Z,27.8966,-93.5973,1011.27,11111222 
TABS,ioos:station:wmo:42047:1,2015-10-04T04:30:00Z,27.8966,-93.5973,1011.27,11111222 
TABS,ioos:station:wmo:42047:1,2015-10-04T05:00:00Z,27.8966,-93.5973,1011.17,11111222 
TABS,ioos:station:wmo:42047:1,2015-10-04T05:30:00Z,27.8966,-93.5973,1010.94,11111222 
TABS,ioos:station:wmo:42047:1,2015-10-04T06:00:00Z,27.8966,-93.5973,1010.81,11111222 
TABS,ioos:station:wmo:42047:1,2015-10-04T06:30:00Z,27.8966,-93.5973,1010.75,11111222 
TABS,ioos:station:wmo:42047:1,2015-10-04T07:00:00Z,27.8966,-93.5973,1010.49,11111222 
TABS,ioos:station:wmo:42047:1,2015-10-04T07:30:00Z,27.8966,-93.5973,1010.41,11111222 
TABS,ioos:station:wmo:42047:1,2015-10-04T08:00:00Z,27.8966,-93.5973,1010.42,11111222 
TABS,ioos:station:wmo:42047:1,2015-10-04T08:30:00Z,27.8966,-93.5973,1010.17,11111222 
TABS,ioos:station:wmo:42047:1,2015-10-04T09:00:00Z,27.8966,-93.5973,1010.27,11111222 
TABS,ioos:station:wmo:42047:1,2015-10-04T09:30:00Z,27.8966,-93.5973,1010.57,11111222 
TABS,ioos:station:wmo:42047:1,2015-10-04T10:00:00Z,27.8966,-93.5973,1010.82,11111222 
TABS,ioos:station:wmo:42047:1,2015-10-04T10:30:00Z,27.8966,-93.5973,1011.21,11111222 
TABS,ioos:station:wmo:42047:1,2015-10-04T11:00:00Z,27.8966,-93.5973,1011.39,11111222 
TABS,ioos:station:wmo:42047:1,2015-10-04T11:30:00Z,27.8966,-93.5973,1011.63,11111222 
TABS,ioos:station:wmo:42047:1,2015-10-04T12:00:00Z,27.8966,-93.5973,1011.99,11111222 
TABS,ioos:station:wmo:42047:1,2015-10-04T12:30:00Z,27.8966,-93.5973,1012.54,11111222 
TABS,ioos:station:wmo:42047:1,2015-10-04T13:00:00Z,27.8966,-93.5973,1012.84,11111222 
TABS,ioos:station:wmo:42047:1,2015-10-04T13:30:00Z,27.8966,-93.5973,1013.17,11111222 
TABS,ioos:station:wmo:42047:1,2015-10-04T14:00:00Z,27.8966,-93.5973,1013.55,11111222 
TABS,ioos:station:wmo:42047:1,2015-10-04T14:30:00Z,27.8966,-93.5973,1013.6,11111222 
TABS,ioos:station:wmo:42047:1,2015-10-04T15:00:00Z,27.8966,-93.5973,1013.89,11111222 
TABS,ioos:station:wmo:42047:1,2015-10-04T15:30:00Z,27.8966,-93.5973,1014.13,11111222 
TABS,ioos:station:wmo:42047:1,2015-10-04T16:00:00Z,27.8966,-93.5973,1014.3,11111222 
TABS,ioos:station:wmo:42047:1,2015-10-04T16:30:00Z,27.8966,-93.5973,1014.16,11111222 
TABS,ioos:station:wmo:42047:1,2015-10-04T17:00:00Z,27.8966,-93.5973,1014.21,11111222 
TABS,ioos:station:wmo:42047:1,2015-10-04T17:30:00Z,27.8966,-93.5973,1014.04,11111222 
TABS,ioos:station:wmo:42047:1,2015-10-04T18:00:00Z,27.8966,-93.5973,1014.0,11111222 
TABS,ioos:station:wmo:42047:1,2015-10-04T18:30:00Z,27.8966,-93.5973,1013.85,11111222 
TABS,ioos:station:wmo:42047:1,2015-10-04T19:00:00Z,27.8966,-93.5973,1013.56,11111222 
TABS,ioos:station:wmo:42047:1,2015-10-04T19:30:00Z,27.8966,-93.5973,1013.19,11111222 
TABS,ioos:station:wmo:42047:1,2015-10-04T20:00:00Z,27.8966,-93.5973,1012.69,11111222 
TABS,ioos:station:wmo:42047:1,2015-10-04T20:30:00Z,27.8966,-93.5973,1012.45,11111222 
TABS,ioos:station:wmo:42047:1,2015-10-04T21:00:00Z,27.8966,-93.5973,1012.16,11111222 
TABS,ioos:station:wmo:42047:1,2015-10-04T21:30:00Z,27.8966,-93.5973,1012.09,11111222 
TABS,ioos:station:wmo:42047:1,2015-10-04T22:00:00Z,27.8966,-93.5973,1012.13,11111222 
TABS,ioos:station:wmo:42047:1,2015-10-04T22:30:00Z,27.8966,-93.5973,1012.06,11111222 
TABS,ioos:station:wmo:42047:1,2015-10-04T23:00:00Z,27.8966,-93.5973,1012.08,11111222 
TABS,ioos:station:wmo:42047:1,2015-10-04T23:30:00Z,27.8966,-93.5973,1012.08,11111222 
TABS,ioos:station:wmo:42047:1,2015-10-05T00:00:00Z,27.8966,-93.5973,1012.35,11111222 
TABS,ioos:station:wmo:42047:1,2015-10-05T00:30:00Z,27.8966,-93.5973,1012.51,11111222 
TABS,ioos:station:wmo:42047:1,2015-10-05T01:00:00Z,27.8966,-93.5973,1013.01,11111222 
TABS,ioos:station:wmo:42047:1,2015-10-05T01:30:00Z,27.8966,-93.5973,1013.16,11111222 
TABS,ioos:station:wmo:42047:1,2015-10-05T02:00:00Z,27.8966,-93.5973,1013.33,11111222 
TABS,ioos:station:wmo:42047:1,2015-10-05T02:30:00Z,27.8966,-93.5973,1013.48,11111222 
TABS,ioos:station:wmo:42047:1,2015-10-05T03:00:00Z,27.8966,-93.5973,1013.65,11111222 
TABS,ioos:station:wmo:42047:1,2015-10-05T03:30:00Z,27.8966,-93.5973,1013.83,11111222 
TABS,ioos:station:wmo:42047:1,2015-10-05T04:00:00Z,27.8966,-93.5973,1013.73,11111222 
TABS,ioos:station:wmo:42047:1,2015-10-05T04:30:00Z,27.8966,-93.5973,1013.73,11111222 
TABS,ioos:station:wmo:42047:1,2015-10-05T05:00:00Z,27.8966,-93.5973,1013.62,11111222 
TABS,ioos:station:wmo:42047:1,2015-10-05T05:30:00Z,27.8966,-93.5973,1013.4,11111222 
TABS,ioos:station:wmo:42047:1,2015-10-05T06:00:00Z,27.8966,-93.5973,1013.56,11111222 
TABS,ioos:station:wmo:42047:1,2015-10-05T06:30:00Z,27.8966,-93.5973,1013.71,11111222 
TABS,ioos:station:wmo:42047:1,2015-10-05T07:00:00Z,27.8966,-93.5973,1013.69,11111222 
TABS,ioos:station:wmo:42047:1,2015-10-05T07:30:00Z,27.8966,-93.5973,1013.28,11111222 
TABS,ioos:station:wmo:42047:1,2015-10-05T08:00:00Z,27.8966,-93.5973,1013.15,11111222 
TABS,ioos:station:wmo:42047:1,2015-10-05T08:30:00Z,27.8966,-93.5973,1012.97,11111222 
TABS,ioos:station:wmo:42047:1,2015-10-05T09:00:00Z,27.8966,-93.5973,1013.0,11111222 
TABS,ioos:station:wmo:42047:1,2015-10-05T09:30:00Z,27.8966,-93.5973,1013.09,11111222 
TABS,ioos:station:wmo:42047:1,2015-10-05T10:00:00Z,27.8966,-93.5973,1013.25,11111222 
TABS,ioos:station:wmo:42047:1,2015-10-05T10:30:00Z,27.8966,-93.5973,1013.74,11111222 
TABS,ioos:station:wmo:42047:1,2015-10-05T11:00:00Z,27.8966,-93.5973,1013.97,11111222 
TABS,ioos:station:wmo:42047:1,2015-10-05T11:30:00Z,27.8966,-93.5973,1014.39,11111222 
TABS,ioos:station:wmo:42047:1,2015-10-05T12:00:00Z,27.8966,-93.5973,1014.47,11111222 
TABS,ioos:station:wmo:42047:1,2015-10-05T12:30:00Z,27.8966,-93.5973,1014.77,11111222 
TABS,ioos:station:wmo:42047:1,2015-10-05T13:00:00Z,27.8966,-93.5973,1015.1,11111222 
TABS,ioos:station:wmo:42047:1,2015-10-05T13:30:00Z,27.8966,-93.5973,1015.34,11111222 
TABS,ioos:station:wmo:42047:1,2015-10-05T14:00:00Z,27.8966,-93.5973,1015.96,11111222 
TABS,ioos:station:wmo:42047:1,2015-10-05T14:30:00Z,27.8966,-93.5973,1016.26,11111222 
TABS,ioos:station:wmo:42047:1,2015-10-05T15:00:00Z,27.8966,-93.5973,1016.23,11111222 
TABS,ioos:station:wmo:42047:1,2015-10-05T15:30:00Z,27.8966,-93.5973,1016.16,11111222 
TABS,ioos:station:wmo:42047:1,2015-10-05T16:00:00Z,27.8966,-93.5973,1016.21,11111222 
TABS,ioos:station:wmo:42047:1,2015-10-05T16:30:00Z,27.8966,-93.5973,1016.44,11111222 
TABS,ioos:station:wmo:42047:1,2015-10-05T17:00:00Z,27.8966,-93.5973,1016.49,11111222 
TABS,ioos:station:wmo:42047:1,2015-10-05T17:30:00Z,27.8966,-93.5973,1016.25,11111222 
TABS,ioos:station:wmo:42047:1,2015-10-05T18:00:00Z,27.8966,-93.5973,1015.95,11111222 
TABS,ioos:station:wmo:42047:1,2015-10-05T18:30:00Z,27.8966,-93.5973,1015.56,11111222 
TABS,ioos:station:wmo:42047:1,2015-10-05T19:00:00Z,27.8966,-93.5973,1015.18,11111222 
TABS,ioos:station:wmo:42047:1,2015-10-05T19:30:00Z,27.8966,-93.5973,1014.96,11111222 
TABS,ioos:station:wmo:42047:1,2015-10-05T20:00:00Z,27.8966,-93.5973,1014.68,11111222 
TABS,ioos:station:wmo:42047:1,2015-10-05T20:30:00Z,27.8966,-93.5973,1014.59,11111222 
TABS,ioos:station:wmo:42047:1,2015-10-05T21:00:00Z,27.8966,-93.5973,1014.55,11111222 
TABS,ioos:station:wmo:42047:1,2015-10-05T21:30:00Z,27.8966,-93.5973,1014.66,11111222 
TABS,ioos:station:wmo:42047:1,2015-10-05T22:00:00Z,27.8966,-93.5973,1014.7,11111222 
TABS,ioos:station:wmo:42047:1,2015-10-05T22:30:00Z,27.8966,-93.5973,1014.69,11111222 
TABS,ioos:station:wmo:42047:1,2015-10-05T23:00:00Z,27.8966,-93.5973,1014.85,11111222 
TABS,ioos:station:wmo:42047:1,2015-10-05T23:30:00Z,27.8966,-93.5973,1015.02,11111222 
TABS,ioos:station:wmo:42047:1,2015-10-06T00:00:00Z,27.8966,-93.5973,1015.23,11111222 
TABS,ioos:station:wmo:42047:1,2015-10-06T00:30:00Z,27.8966,-93.5973,1015.61,11111222 
TABS,ioos:station:wmo:42047:1,2015-10-06T01:00:00Z,27.8966,-93.5973,1015.87,11111222 
TABS,ioos:station:wmo:42047:1,2015-10-06T01:30:00Z,27.8966,-93.5973,1016.18,11111222 
TABS,ioos:station:wmo:42047:1,2015-10-06T02:00:00Z,27.8966,-93.5973,1016.42,11111222 
TABS,ioos:station:wmo:42047:1,2015-10-06T02:30:00Z,27.8966,-93.5973,1016.32,11111222 
TABS,ioos:station:wmo:42047:1,2015-10-06T03:00:00Z,27.8966,-93.5973,1016.45,11111222 
TABS,ioos:station:wmo:42047:1,2015-10-06T03:30:00Z,27.8966,-93.5973,1016.47,11111222 
TABS,ioos:station:wmo:42047:1,2015-10-06T04:00:00Z,27.8966,-93.5973,1016.44,11111222 
TABS,ioos:station:wmo:42047:1,2015-10-06T04:30:00Z,27.8966,-93.5973,1016.48,11111222 
TABS,ioos:station:wmo:42047:1,2015-10-06T05:00:00Z,27.8966,-93.5973,1016.39,11111222 
TABS,ioos:station:wmo:42047:1,2015-10-06T05:30:00Z,27.8966,-93.5973,1016.29,11111222 
TABS,ioos:station:wmo:42047:1,2015-10-06T06:00:00Z,27.8966,-93.5973,1016.24,11111222 
TABS,ioos:station:wmo:42047:1,2015-10-06T06:30:00Z,27.8966,-93.5973,1016.18,11111222 
TABS,ioos:station:wmo:42047:1,2015-10-06T07:00:00Z,27.8966,-93.5973,1015.96,11111222 
TABS,ioos:station:wmo:42047:1,2015-10-06T07:30:00Z,27.8966,-93.5973,1015.75,11111222 
TABS,ioos:station:wmo:42047:1,2015-10-06T08:00:00Z,27.8966,-93.5973,1015.67,11111222 
TABS,ioos:station:wmo:42047:1,2015-10-06T08:30:00Z,27.8966,-93.5973,1015.57,11111222 
TABS,ioos:station:wmo:42047:1,2015-10-06T09:00:00Z,27.8966,-93.5973,1015.55,11111222 
TABS,ioos:station:wmo:42047:1,2015-10-06T09:30:00Z,27.8966,-93.5973,1015.58,11111222 
TABS,ioos:station:wmo:42047:1,2015-10-06T10:00:00Z,27.8966,-93.5973,1015.81,11111222 
TABS,ioos:station:wmo:42047:1,2015-10-06T10:30:00Z,27.8966,-93.5973,1016.01,11111222 
TABS,ioos:station:wmo:42047:1,2015-10-06T11:00:00Z,27.8966,-93.5973,1016.22,11111222 
TABS,ioos:station:wmo:42047:1,2015-10-06T11:30:00Z,27.8966,-93.5973,1016.48,11111222 
TABS,ioos:station:wmo:42047:1,2015-10-06T12:00:00Z,27.8966,-93.5973,1016.82,11111222 
TABS,ioos:station:wmo:42047:1,2015-10-06T12:30:00Z,27.8966,-93.5973,1017.23,11111222 
TABS,ioos:station:wmo:42047:1,2015-10-06T13:00:00Z,27.8966,-93.5973,1017.47,11111222 
TABS,ioos:station:wmo:42047:1,2015-10-06T13:30:00Z,27.8966,-93.5973,1017.66,11111222 
TABS,ioos:station:wmo:42047:1,2015-10-06T14:00:00Z,27.8966,-93.5973,1017.93,11111222 
TABS,ioos:station:wmo:42047:1,2015-10-06T14:30:00Z,27.8966,-93.5973,1018.15,11111222 
TABS,ioos:station:wmo:42047:1,2015-10-06T15:00:00Z,27.8966,-93.5973,1018.36,11111222 
TABS,ioos:station:wmo:42047:1,2015-10-06T15:30:00Z,27.8966,-93.5973,1018.46,11111222 
TABS,ioos:station:wmo:42047:1,2015-10-06T16:00:00Z,27.8966,-93.5973,1018.36,11111222 
TABS,ioos:station:wmo:42047:1,2015-10-06T16:30:00Z,27.8966,-93.5973,1018.21,11111222 
TABS,ioos:station:wmo:42047:1,2015-10-06T17:00:00Z,27.8966,-93.5973,1018.17,11111222 
TABS,ioos:station:wmo:42047:1,2015-10-06T17:30:00Z,27.8966,-93.5973,1017.81,11111222 
TABS,ioos:station:wmo:42047:1,2015-10-06T18:00:00Z,27.8966,-93.5973,1017.64,11111222 
TABS,ioos:station:wmo:42047:1,2015-10-06T18:30:00Z,27.8966,-93.5973,1017.19,11111222 